Météo par heure à Junoszyn

Ce jour, 20 Juin, Dimanche

Heure Température Précipitation Vent Pression Humidité
00:00 +22°C° 0 mm 3 m/s 750 mmHg 75%
01:00 +22°C° 0 mm 3 m/s 750 mmHg 78%
02:00 +21°C° 0 mm 3 m/s 749 mmHg 79%
03:00 +21°C° 0 mm 3 m/s 749 mmHg 79%
04:00 +20°C° 0 mm 4 m/s 749 mmHg 80%
05:00 +22°C° 0 mm 4 m/s 749 mmHg 76%
06:00 +23°C° 0 mm 4 m/s 749 mmHg 72%
07:00 +25°C° 0 mm 4 m/s 749 mmHg 68%
08:00 +27°C° 0 mm 5 m/s 749 mmHg 63%
09:00 +28°C° 0 mm 5 m/s 749 mmHg 57%
10:00 +30°C° 0 mm 5 m/s 749 mmHg 52%
11:00 +32°C° 0 mm 4 m/s 749 mmHg 50%
12:00 +32°C° 0 mm 4 m/s 748 mmHg 47%
13:00 +33°C° 0 mm 4 m/s 748 mmHg 45%
14:00 +33°C° 0 mm 3 m/s 748 mmHg 46%
15:00 +33°C° 0 mm 3 m/s 748 mmHg 47%
16:00 +32°C° 0 mm 2 m/s 747 mmHg 47%
17:00 +31°C° 0 mm 3 m/s 747 mmHg 54%
18:00 +29°C° 0 mm 3 m/s 747 mmHg 60%
19:00 +28°C° 0 mm 4 m/s 746 mmHg 66%
20:00 +27°C° 0 mm 4 m/s 747 mmHg 67%
21:00 +25°C° 0 mm 4 m/s 747 mmHg 67%
22:00 +23°C° 0 mm 4 m/s 747 mmHg 68%
23:00 +22°C° 0 mm 4 m/s 747 mmHg 70%

Demain, 21 Juin, Lundi

Heure Température Précipitation Vent Pression Humidité
00:00 +22°C° 0 mm 3 m/s 746 mmHg 73%
01:00 +21°C° 0 mm 3 m/s 746 mmHg 75%
02:00 +21°C° 0 mm 3 m/s 746 mmHg 77%
03:00 +20°C° 0 mm 3 m/s 746 mmHg 80%
04:00 +19°C° 0 mm 3 m/s 745 mmHg 83%
05:00 +21°C° 0 mm 4 m/s 745 mmHg 78%
06:00 +22°C° 0 mm 4 m/s 746 mmHg 74%
07:00 +25°C° 0 mm 4 m/s 746 mmHg 70%
08:00 +27°C° 0 mm 4 m/s 746 mmHg 65%
09:00 +28°C° 0 mm 4 m/s 745 mmHg 59%
10:00 +30°C° 0 mm 4 m/s 745 mmHg 54%
11:00 +31°C° 0 mm 3 m/s 745 mmHg 51%
12:00 +33°C° 0 mm 3 m/s 745 mmHg 49%
13:00 +34°C° 0 mm 2 m/s 745 mmHg 46%
14:00 +32°C° 1.5 mm 4 m/s 744 mmHg 54%
15:00 +29°C° 1.5 mm 5 m/s 744 mmHg 63%
16:00 +27°C° 1.5 mm 7 m/s 744 mmHg 71%
17:00 +24°C° 5.3 mm 6 m/s 745 mmHg 77%
18:00 +22°C° 5.3 mm 4 m/s 746 mmHg 83%
19:00 +20°C° 5.3 mm 2 m/s 746 mmHg 88%
20:00 +20°C° 0.1 mm 2 m/s 746 mmHg 90%
21:00 +19°C° 0.1 mm 2 m/s 747 mmHg 91%
22:00 +20°C° 0.1 mm 1 m/s 747 mmHg 92%
23:00 +19°C° 0 mm 2 m/s 747 mmHg 93%

Après-demain, 22 Juin, Mardi

Heure Température Précipitation Vent Pression Humidité
00:00 +19°C° 0 mm 2 m/s 747 mmHg 93%
01:00 +18°C° 0 mm 2 m/s 747 mmHg 94%
02:00 +18°C° 0 mm 2 m/s 747 mmHg 95%
03:00 +18°C° 0 mm 2 m/s 747 mmHg 96%
04:00 +17°C° 0 mm 3 m/s 748 mmHg 98%
05:00 +18°C° 0 mm 3 m/s 748 mmHg 94%
06:00 +18°C° 0 mm 3 m/s 748 mmHg 90%
07:00 +19°C° 0 mm 4 m/s 749 mmHg 87%
08:00 +20°C° 0 mm 4 m/s 749 mmHg 81%
09:00 +21°C° 0 mm 3 m/s 749 mmHg 74%
10:00 +22°C° 0 mm 3 m/s 750 mmHg 68%
11:00 +24°C° 0 mm 3 m/s 750 mmHg 65%
12:00 +25°C° 0 mm 3 m/s 750 mmHg 61%
13:00 +26°C° 0 mm 3 m/s 750 mmHg 58%
14:00 +27°C° 0 mm 2 m/s 750 mmHg 57%
15:00 +27°C° 0 mm 2 m/s 750 mmHg 56%
16:00 +27°C° 0 mm 2 m/s 750 mmHg 55%
17:00 +26°C° 0 mm 2 m/s 750 mmHg 60%
18:00 +26°C° 0 mm 2 m/s 750 mmHg 65%
19:00 +25°C° 0 mm 2 m/s 750 mmHg 70%
20:00 +24°C° 0 mm 2 m/s 750 mmHg 72%
21:00 +21°C° 0 mm 2 m/s 749 mmHg 73%
22:00 +20°C° 0 mm 3 m/s 749 mmHg 75%
23:00 +19°C° 0 mm 3 m/s 749 mmHg 77%

23 Juin, Mercredi

Heure Température Précipitation Vent Pression Humidité
00:00 +19°C° 0 mm 3 m/s 749 mmHg 79%
01:00 +18°C° 0 mm 3 m/s 749 mmHg 81%
02:00 +18°C° 1.2 mm 2 m/s 749 mmHg 86%
03:00 +18°C° 1.2 mm 2 m/s 750 mmHg 91%
04:00 +19°C° 1.2 mm 1 m/s 750 mmHg 96%
05:00 +18°C° 0.9 mm 2 m/s 750 mmHg 96%
06:00 +19°C° 0.9 mm 3 m/s 749 mmHg 95%
07:00 +19°C° 0.9 mm 3 m/s 749 mmHg 95%
08:00 +21°C° 0.2 mm 3 m/s 749 mmHg 90%
09:00 +22°C° 0.2 mm 3 m/s 750 mmHg 85%
10:00 +25°C° 0.2 mm 2 m/s 750 mmHg 80%
11:00 +25°C° 0.3 mm 3 m/s 750 mmHg 78%
12:00 +25°C° 0.3 mm 4 m/s 750 mmHg 75%
13:00 +25°C° 0.3 mm 5 m/s 751 mmHg 72%
14:00 +23°C° 0 mm 5 m/s 751 mmHg 70%
15:00 +23°C° 0 mm 6 m/s 752 mmHg 67%
16:00 +22°C° 0 mm 7 m/s 752 mmHg 64%
17:00 +21°C° 0 mm 6 m/s 752 mmHg 68%
18:00 +19°C° 0 mm 6 m/s 753 mmHg 72%
19:00 +17°C° 0 mm 6 m/s 753 mmHg 77%
20:00 +15°C° 0 mm 5 m/s 753 mmHg 82%
21:00 +14°C° 0 mm 4 m/s 753 mmHg 87%
22:00 +13°C° 0 mm 3 m/s 754 mmHg 92%
23:00 +13°C° 0 mm 3 m/s 754 mmHg 92%

24 Juin, Jeudi

Heure Température Précipitation Vent Pression Humidité
00:00 +13°C° 0 mm 3 m/s 754 mmHg 93%
01:00 +14°C° 0 mm 2 m/s 754 mmHg 93%
02:00 +14°C° 0 mm 2 m/s 754 mmHg 94%
03:00 +14°C° 0 mm 2 m/s 754 mmHg 94%
04:00 +14°C° 0 mm 2 m/s 754 mmHg 95%
05:00 +14°C° 0 mm 3 m/s 754 mmHg 90%
06:00 +16°C° 0 mm 3 m/s 754 mmHg 84%
07:00 +17°C° 0 mm 3 m/s 754 mmHg 79%
08:00 +18°C° 0 mm 3 m/s 754 mmHg 75%
09:00 +19°C° 0 mm 2 m/s 754 mmHg 71%
10:00 +21°C° 0 mm 1 m/s 755 mmHg 67%
11:00 +21°C° 0 mm 2 m/s 754 mmHg 64%
12:00 +23°C° 0 mm 2 m/s 754 mmHg 61%
13:00 +24°C° 0 mm 2 m/s 754 mmHg 58%
14:00 +25°C° 0 mm 2 m/s 753 mmHg 57%
15:00 +25°C° 0 mm 2 m/s 753 mmHg 57%
16:00 +26°C° 0 mm 2 m/s 752 mmHg 56%
17:00 +24°C° 0.2 mm 2 m/s 752 mmHg 64%
18:00 +23°C° 0.2 mm 2 m/s 752 mmHg 71%
19:00 +21°C° 0.2 mm 3 m/s 751 mmHg 79%
20:00 +20°C° 3.6 mm 3 m/s 751 mmHg 84%
21:00 +19°C° 3.6 mm 2 m/s 751 mmHg 88%
22:00 +17°C° 3.6 mm 2 m/s 751 mmHg 93%
23:00 +17°C° 5.4 mm 3 m/s 751 mmHg 94%

25 Juin, Vendredi

Heure Température Précipitation Vent Pression Humidité
00:00 +17°C° 5.4 mm 4 m/s 751 mmHg 95%
01:00 +15°C° 5.4 mm 5 m/s 752 mmHg 96%
02:00 +15°C° 0.1 mm 5 m/s 752 mmHg 96%
03:00 +15°C° 0.1 mm 5 m/s 752 mmHg 96%
04:00 +14°C° 0.1 mm 5 m/s 752 mmHg 96%
05:00 +15°C° 0 mm 5 m/s 752 mmHg 93%
06:00 +15°C° 0 mm 4 m/s 753 mmHg 90%
07:00 +15°C° 0 mm 4 m/s 753 mmHg 87%
08:00 +17°C° 0 mm 4 m/s 754 mmHg 83%
09:00 +17°C° 0 mm 4 m/s 754 mmHg 79%
10:00 +18°C° 0 mm 4 m/s 754 mmHg 76%
11:00 +19°C° 0 mm 4 m/s 754 mmHg 71%
12:00 +20°C° 0 mm 4 m/s 754 mmHg 66%
13:00 +21°C° 0 mm 4 m/s 754 mmHg 61%
14:00 +21°C° 0 mm 3 m/s 754 mmHg 60%
15:00 +22°C° 0 mm 3 m/s 754 mmHg 58%
16:00 +22°C° 0 mm 3 m/s 754 mmHg 56%
17:00 +21°C° 0 mm 2 m/s 754 mmHg 61%
18:00 +21°C° 0 mm 2 m/s 753 mmHg 66%
19:00 +21°C° 0 mm 1 m/s 753 mmHg 70%
20:00 +20°C° 0 mm 1 m/s 754 mmHg 72%
21:00 +19°C° 0 mm 1 m/s 754 mmHg 73%
22:00 +17°C° 0 mm 2 m/s 755 mmHg 75%
23:00 +18°C° 0 mm 1 m/s 754 mmHg 76%
Voir plus

Nous avons besoin de votre consentement

Meteoprog et ses fournisseurs de services peuvent stocker et accéder à des données personnelles telles que des cookies, des identifiants d'appareils ou d'autres technologies similaires sur votre appareil et traiter ces données pour personnaliser le contenu et les publicités, ainsi que pour fournir des fonctionnalités de médias sociaux et analyser le trafic.

  • Stocker et/ou accéder à des informations sur votre appareil

    Des cookies, des identifiants d'appareils ou d'autres informations peuvent être stockés ou accessibles sur votre appareil aux fins indiquées ci-dessus.

  • Annonces et contenus personnalisés, mesure des annonces et des contenus, connaissance de l'audience et développement de produits

    Les annonces et le contenu peuvent être personnalisés en fonction d'un profil. D'autres données peuvent être ajoutées pour mieux personnaliser les annonces et le contenu. Les performances des publicités et du contenu peuvent être mesurées. Il est possible d'obtenir des informations sur le public qui a vu les publicités et le contenu. Ces données peuvent être utilisées pour développer ou améliorer l'expérience de l'utilisateur, les systèmes et les logiciels.

En cliquant sur "J'accepte", vous autorisez l'utilisation de cookies, des identifiants d'appareils, des balises web ou d'autres technologies similaires. Vos paramètres peuvent être modifiés dans le navigateur de votre appareil.

Dans certains cas, des intérêts légitimes peuvent être invoqués plutôt qu'un consentement. Vous pouvez en savoir plus à ce sujet dans notre Politique de confidentialité et de cookies.